Location: Newark
(13.5236°S, 71.9791°W)
Time: 11:31:47
(UTC+00:00)

OTV 5 (USA 277) - Pass Details

Date: 22 July 2019
Orbit: 305 x 329 km, 54.5° (Epoch: 20 August)

Event Time Altitude Azimuth Distance (km) Brightness Sun altitude
Exits shadow 10:24:37 - 197° (SSW) 1,283 ? -11.5°
Reaches altitude 10° 10:24:48 10° 196° (SSW) 1,212 ? -11.5°
Maximum altitude 10:27:20 38° 125° (SE) 495 ? -10.9°
Drops below altitude 10° 10:29:50 10° 54° (NE) 1,190 ? -10.3°
Sets 10:31:49 0° 45° (NE) 2,007 ? -9.8°
